Location: Bamobli
(6.6379°N, 10.9396°W)
Time: 16:30:16
(UTC+00:00)

H-2A R/B - Pass Details

Date: 07 June 2020
Orbit: 500 x 542 km, 97.3° (Epoch: 17 June)

Event Time Altitude Azimuth Distance (km) Brightness Sun altitude
Rises 05:55:09 0° 25° (NNE) 2,578 7.1 -8.3°
Reaches altitude 10° 05:57:22 10° 36° (NE) 1,696 6.4 -7.8°
Maximum altitude 06:00:40 32° 100° (E) 868 4.5 -7.0°
Drops below altitude 10° 06:03:59 10° 165° (SSE) 1,704 5.2 -6.3°
Sets 06:06:12 0° 175° (S) 2,593 6.1 -5.8°
